User: anonymous   Login
Location: Great Northern Moose Lodge
(44.6765°N, 71.1811°W)
Time: 13:32:45
(UTC-05:00)
Language:

Terra - Orbit

View from above orbital plane
View from above orbital plane
View from above satellite
View from above satellite

Ground track
Ground track

The orbit data is extracted from the following two-line orbital elements,

1 25994U 99068A   14330.16200148  .00000789  00000-0  18521-3 0  8582
2 25994 098.2098 042.5728 0001080 082.6676 277.4678 14.57101110794652
Epoch (UTC): 26 November 2014 03:53:16
Eccentricity: 0.0001080
inclination: 98.2098°
perigee height: 702 km
apogee height: 703 km
right ascension of ascending node: 42.5728°
argument of perigee: 82.6676°
revolutions per day: 14.57101110
mean anomaly at epoch: 277.4678°
orbit number at epoch: 79465

The dashed part of the orbit path shows where the satellite is in the earth's shadow,  

DLR